Flag for United Kingdom Weather past 2 weeks in Canterbury, England, United Kingdom

Now
42 °F

Quite cool.


Feels Like: 35 °F
Forecast: 43 / 57 °F
Wind: 12 mph from Northeast

Location: Manston

Current Time: Apr 19, 2015 at 6:14:35 AM

Latest Report: Apr 19, 2015 at 5:00 AM


Visibility: 14 mi

Pressure: 30.27 "Hg

Humidity: 84%

Dew point: 37 °F

Location of CanterburyLocation

Historic Weather in Canterbury — Graph

°F

Canterbury temperature yesterday

Maximum temperature yesterday: 53 °F (at 2:00 PM)
Minimum temperature yesterday: 42 °F (at 5:00 AM)
Average temperature yesterday: 47 °F

Past Weeks' High & Low Weather Summary

 TemperatureHumidityPressure
High73 °F (Apr 15, 2:00 PM)100% (Apr 4, 4:00 AM)30.66 "Hg (Apr 4, 4:00 AM)
Low35 °F (Apr 6, 5:00 AM)41% (Apr 15, 12:00 PM)29.93 "Hg (Apr 11, 6:00 AM)
Average48 °F80%30.28 "Hg
* Reported Apr 4 4:00 AM — Apr 19 4:00 AM, Canterbury, Weather by CustomWeather, © 2015

Note: Actual official high and low records may vary slightly from our data, if they occured in-between our weather recording intervals... More about our weather records

Advertising

Canterbury weather history for previous 24 hours

 ConditionsComfort  
Time TempWeatherWind HumidityBarometerVisibility
4:00 AM
Sun, Apr 19
43 °FQuite cool.14 mph83%30.28 "Hg15 mi
3:00 AM43 °FQuite cool.14 mph85%30.29 "Hg16 mi
2:00 AM43 °FQuite cool.15 mph85%30.31 "Hg15 mi
1:00 AM43 °FQuite cool.14 mph86%30.32 "Hg14 mi
12:00 AM44 °FQuite cool.16 mph86%30.33 "Hg14 mi
11:00 PM
Sat, Apr 18
44 °FQuite cool.16 mph87%30.33 "Hg11 mi
10:00 PM44 °FQuite cool.17 mph86%30.34 "Hg12 mi
9:00 PM45 °FQuite cool.17 mph87%30.34 "Hg11 mi
8:00 PM46 °FCool.17 mph83%30.33 "Hg10 mi
7:00 PM47 °FCool.16 mph80%30.33 "Hg8 mi
6:00 PM49 °FCool.17 mph69%30.33 "Hg17 mi
5:00 PM51 °FCool.16 mph72%30.34 "Hg13 mi
4:00 PM51 °FCool.17 mph69%30.34 "Hg12 mi
3:00 PM53 °FCool.16 mph66%30.36 "Hg15 mi
2:00 PM53 °FCool.15 mph72%30.37 "Hg12 mi
1:00 PM52 °FCool.15 mph76%30.38 "Hg8 mi
12:00 PM52 °FCool.15 mph75%30.37 "Hg11 mi
10:00 AM50 °FCool.15 mph79%30.37 "Hg13 mi
9:00 AM49 °FCool.16 mph76%30.36 "Hg10 mi
8:00 AM46 °FCool.14 mph81%30.36 "Hg13 mi
7:00 AM45 °FCool.12 mph82%30.34 "Hg14 mi
6:00 AM43 °FQuite cool.9 mph87%30.33 "Hg11 mi
Weather by CustomWeather, © 2015

See weather overviewHow to use our weather pages